Waarnemingen

Advertentie
Mijn weer
Schaffen, België (6465): temperatuur & dauwpunt: 12.01.2021 01:00:00 - 18.01.2021 01:00:00 (CET)Schaffen, België (6465): windsnelheid & windstoten: 12.01.2021 01:00:00 - 18.01.2021 01:00:00 (CET)Schaffen, België (6465): windrichting: 12.01.2021 01:00:00 - 18.01.2021 01:00:00 (CET)Schaffen, België (6465): luchtdruk: 12.01.2021 01:00:00 - 18.01.2021 01:00:00 (CET)Schaffen, België (6465): zicht: 12.01.2021 01:00:00 - 18.01.2021 01:00:00 (CET)
Datum & Tijd tt [°C] td [°C] ff [km/u] ff [kn] fx [km/u] fx [kn] dd ppp [hPa] vv [km]
18.01.2021 01:00:00 4,4 2,4 11 6 - - WZW 1025,2 18
18.01.2021 00:00:00 4,5 2,4 7 4 18 10 WZW 1024,9 19
17.01.2021 23:00:00 4,5 2,7 11 6 22 12 W 1024,7 19
17.01.2021 22:00:00 4,8 3,0 11 6 - - W 1024,5 16
17.01.2021 21:00:00 4,8 3,2 14 8 22 12 W 1024,2 15
17.01.2021 20:00:00 5,0 3,7 14 8 22 12 W 1024,0 14
17.01.2021 19:00:00 5,0 3,4 11 6 - - W 1023,7 14
17.01.2021 18:00:00 5,5 3,7 11 6 22 12 W 1023,0 17
17.01.2021 17:00:00 5,8 3,5 14 8 25 14 WNW 1022,2 19
17.01.2021 16:00:00 6,5 4,0 11 6 - - WNW 1021,3 18
17.01.2021 15:00:00 6,8 3,6 18 10 29 16 WNW 1020,5 19
17.01.2021 14:00:00 6,3 4,3 14 8 22 12 WNW 1020,2 16
17.01.2021 13:00:00 5,7 4,8 7 4 - - NW 1020,0 11
17.01.2021 12:00:00 5,8 4,8 11 6 22 12 W 1019,6 10
17.01.2021 11:00:00 4,1 3,5 11 6 18 10 W 1019,1 8
17.01.2021 10:00:00 3,8 3,1 11 6 - - W 1018,1 9
17.01.2021 09:00:00 3,2 3,0 13 7 18 10 W 1017,3 5
17.01.2021 08:00:00 2,9 2,9 13 7 18 10 W 1016,6 4,2
17.01.2021 07:00:00 2,2 2,2 11 6 - - W 1015,8 0,4
17.01.2021 06:00:00 1,6 1,6 11 6 14 8 W 1015,7 0,3
17.01.2021 05:00:00 0,6 0,6 4 2 11 6 N 1015,7 2,5
17.01.2021 04:00:00 0,2 0,1 8 4 - - ZZW 1015,7 1,6
17.01.2021 03:00:00 0,0 0,0 4 2 11 6 N 1015,7 1,0
17.01.2021 02:00:00 -0,1 -0,1 7 4 11 6 ZZW 1016,0 2,9
17.01.2021 01:00:00 -0,3 -0,3 7 4 - - Z 1016,1 2,7
17.01.2021 00:00:00 -0,5 -0,5 7 4 11 6 Z 1016,6 3,2
16.01.2021 23:00:00 -0,7 -0,7 7 4 14 8 Z 1017,2 2,4
16.01.2021 22:00:00 -0,8 -0,8 7 4 - - Z 1017,2 2,7
16.01.2021 21:00:00 -0,9 -0,9 11 6 22 12 Z 1017,6 3,4
16.01.2021 20:00:00 -1,1 -1,1 15 8 29 16 Z 1018,0 2,4
16.01.2021 19:00:00 -1,1 -1,2 18 10 - - Z 1018,2 2,6
16.01.2021 18:00:00 -1,0 -1,0 14 8 25 14 Z 1018,8 1,5
16.01.2021 17:00:00 -1,1 -1,1 14 8 22 12 Z 1020,0 1,2
16.01.2021 16:00:00 -1,0 -1,2 14 8 - - Z 1021,3 1,3
16.01.2021 15:00:00 0,6 -4,3 18 10 32 18 Z 1022,1 18
16.01.2021 14:00:00 0,6 -4,6 22 12 32 18 Z 1023,2 20
16.01.2021 13:00:00 1,0 -4,3 22 12 - - Z 1024,7 20
16.01.2021 12:00:00 1,2 -4,2 18 10 25 14 Z 1025,9 20
16.01.2021 11:00:00 1,1 -3,1 14 8 22 12 Z 1026,7 20
16.01.2021 10:00:00 0,4 -1,7 7 4 - - Z 1026,9 13
16.01.2021 09:00:00 0,1 -1,8 7 4 11 6 Z 1027,2 11
16.01.2021 08:00:00 0,2 -2,3 4 2 11 6 N 1027,9 13
16.01.2021 07:00:00 0,2 -1,8 7 4 - - Z 1028,2 12
16.01.2021 06:00:00 0,3 -2,1 4 2 11 6 N 1028,7 14
16.01.2021 05:00:00 -0,3 -2,0 4 2 7 4 N 1029,2 9
16.01.2021 04:00:00 0,0 -1,7 4 2 - - N 1029,7 12
16.01.2021 03:00:00 0,1 -1,6 4 2 7 4 N 1030,0 12
16.01.2021 02:00:00 0,2 -1,4 4 2 7 4 N 1030,2 11
16.01.2021 01:00:00 0,2 -1,7 7 4 - - WZW 1030,5 12
16.01.2021 00:00:00 0,2 -1,8 4 2 7 4 N 1031,0 11
15.01.2021 23:00:00 0,0 -2,1 4 2 7 4 N 1031,2 10
15.01.2021 22:00:00 0,6 -1,8 4 2 - - N 1031,2 11
15.01.2021 21:00:00 0,5 -2,0 4 2 7 4 N 1031,0 10
15.01.2021 20:00:00 0,5 -2,1 4 2 7 4 N 1030,7 13
15.01.2021 19:00:00 0,6 -2,3 4 2 - - N 1030,7 15
15.01.2021 18:00:00 0,8 -2,3 4 2 7 4 N 1030,2 15
15.01.2021 17:00:00 0,8 -2,0 7 4 14 8 N 1030,2 17
15.01.2021 16:00:00 1,2 -1,3 7 4 - - N 1029,9 16
15.01.2021 15:00:00 1,3 -1,5 7 4 14 8 NNW 1029,5 18
15.01.2021 14:00:00 1,0 -1,5 4 2 14 8 N 1029,2 15
15.01.2021 13:00:00 0,8 -1,5 11 6 - - N 1029,5 12
15.01.2021 12:00:00 0,6 -1,5 11 6 18 10 N 1029,4 12
15.01.2021 11:00:00 0,3 -1,7 11 6 18 10 N 1028,9 12
15.01.2021 10:00:00 0,0 -2,0 11 6 - - N - 10
15.01.2021 09:00:00 -0,3 -2,6 11 6 18 10 N 1027,2 17
15.01.2021 08:00:00 -0,3 -2,7 14 8 22 12 N 1026,4 15
15.01.2021 07:00:00 -0,3 -3,1 14 8 - - NNO 1025,5 14
15.01.2021 06:00:00 -0,6 -3,2 14 8 22 12 NNO 1024,7 16
15.01.2021 05:00:00 -0,9 -3,0 14 8 22 12 NNO 1024,2 15
15.01.2021 04:00:00 -1,2 -3,0 14 8 - - NNO 1023,7 11
15.01.2021 03:00:00 -0,9 -3,5 11 6 25 14 NO 1023,0 20
15.01.2021 02:00:00 -0,3 -3,2 14 8 25 14 NO 1022,0 20
15.01.2021 01:00:00 0,0 -3,0 14 8 - - NO 1021,1 20
15.01.2021 00:00:00 0,4 -2,8 14 8 25 14 NO 1020,5 20
14.01.2021 23:00:00 0,5 -2,5 14 8 29 16 ONO 1020,0 20
14.01.2021 22:00:00 1,1 -2,4 14 8 - - ONO 1019,2 20
14.01.2021 21:00:00 1,2 -2,0 14 8 25 14 ONO 1018,5 20
14.01.2021 20:00:00 1,3 -2,0 11 6 25 14 ONO 1017,8 20
14.01.2021 19:00:00 1,6 -1,5 14 8 - - O 1017,6 20
14.01.2021 18:00:00 1,7 -1,3 15 8 25 14 O 1017,5 10
14.01.2021 17:00:00 2,0 -0,8 11 6 18 10 ONO 1017,3 20
14.01.2021 16:00:00 2,0 -0,7 11 6 - - O 1017,3 10
14.01.2021 15:00:00 2,1 -0,4 7 4 22 12 O 1017,6 20
14.01.2021 14:00:00 2,0 0,0 11 6 22 12 O 1018,2 20
14.01.2021 13:00:00 1,8 0,4 11 6 - - O 1018,8 19
14.01.2021 12:00:00 1,6 0,7 7 4 11 6 O 1019,5 12
14.01.2021 11:00:00 1,0 0,3 4 2 7 4 N 1020,0 19
14.01.2021 10:00:00 0,5 0,3 2 1 - - - 1020,0 7
14.01.2021 09:00:00 0,3 0,1 4 2 7 4 N 1019,2 9
14.01.2021 08:00:00 0,3 0,1 4 2 11 6 N 1019,1 15
14.01.2021 07:00:00 0,3 0,0 7 4 - - ZZW 1018,7 15
14.01.2021 06:00:00 0,1 0,1 4 2 18 10 N 1019,0 2,8
14.01.2021 05:00:00 1,1 0,5 7 4 22 12 NO 1018,8 6
14.01.2021 04:00:00 2,9 2,2 7 4 - - N 1018,2 5
14.01.2021 03:00:00 3,0 2,0 4 2 11 6 N 1017,7 7
14.01.2021 02:00:00 3,8 1,6 5 3 18 10 NW 1017,5 10
14.01.2021 01:00:00 3,9 1,8 11 6 - - W 1017,6 13
14.01.2021 00:00:00 4,0 2,4 11 6 18 10 W 1017,5 10
13.01.2021 23:00:00 3,9 2,8 11 6 14 8 W 1016,7 5
13.01.2021 22:00:00 3,9 2,9 11 6 - - W 1016,5 8
13.01.2021 21:00:00 3,9 2,9 7 4 14 8 WNW 1016,2 12
13.01.2021 20:00:00 4,0 2,6 11 6 14 8 W 1015,8 12
13.01.2021 19:00:00 3,7 2,1 11 6 - - W 1015,3 12
13.01.2021 18:00:00 3,6 1,5 7 4 14 8 WZW 1015,7 20
13.01.2021 17:00:00 3,9 1,2 7 4 18 10 W 1015,7 20
13.01.2021 16:00:00 4,1 1,0 7 4 - - W 1015,8 20
13.01.2021 15:00:00 4,7 1,0 14 8 25 14 WZW 1016,0 20
13.01.2021 14:00:00 5,1 1,2 18 10 25 14 W 1016,5 20
13.01.2021 13:00:00 5,0 1,7 14 8 - - WZW 1017,3 15
13.01.2021 12:00:00 3,3 1,4 9 5 22 12 WZW 1018,2 10
13.01.2021 11:00:00 2,5 1,0 11 6 22 12 ZW 1018,6 15
13.01.2021 10:00:00 1,9 0,8 11 6 - - ZW 1018,6 12
13.01.2021 09:00:00 1,5 0,4 11 6 22 12 ZW 1018,6 11
13.01.2021 08:00:00 1,8 0,5 11 6 25 14 WZW 1018,6 16
13.01.2021 07:00:00 1,6 0,3 14 8 - - WZW 1018,3 17
13.01.2021 06:00:00 1,6 0,4 14 8 22 12 WZW 1018,7 17
13.01.2021 05:00:00 1,0 0,1 11 6 18 10 WZW 1019,1 13
13.01.2021 04:00:00 1,2 0,2 11 6 - - WZW 1019,0 13
13.01.2021 03:00:00 1,5 0,5 11 6 18 10 WZW 1018,6 15
13.01.2021 02:00:00 1,3 0,4 11 6 18 10 WZW 1018,5 11
13.01.2021 01:00:00 1,6 0,4 11 6 - - WZW 1018,5 19
13.01.2021 00:00:00 1,9 0,7 14 8 18 10 W 1018,1 19
12.01.2021 23:00:00 2,1 0,8 11 6 18 10 W 1017,7 20
12.01.2021 22:00:00 2,5 0,9 14 8 - - W 1017,1 20
12.01.2021 21:00:00 2,8 0,8 11 6 18 10 W 1016,3 20
12.01.2021 20:00:00 3,5 -0,1 11 6 18 10 W 1015,6 20
12.01.2021 19:00:00 4,0 -0,9 11 6 - - W 1014,7 20
12.01.2021 18:00:00 4,0 -1,5 11 6 18 10 W 1013,7 20
12.01.2021 17:00:00 4,4 -1,4 11 6 25 14 WNW 1013,2 20
12.01.2021 16:00:00 5,0 -1,1 22 12 - - NW 1012,2 20
12.01.2021 15:00:00 5,7 1,7 18 10 32 18 NW 1011,0 20
12.01.2021 14:00:00 6,3 2,9 22 12 36 19 NNW 1010,1 20
12.01.2021 13:00:00 7,0 4,4 21 11 - - NNW 1009,5 10
12.01.2021 12:00:00 7,5 5,8 18 10 29 16 NW 1008,7 20
12.01.2021 11:00:00 7,4 6,4 16 9 36 19 WNW 1007,7 10
12.01.2021 10:00:00 8,0 7,2 18 10 - - WNW 1006,8 11
12.01.2021 09:00:00 8,0 7,3 18 10 32 18 W 1006,0 5
12.01.2021 08:00:00 7,6 6,8 16 9 40 21 WZW 1006,0 10
12.01.2021 07:00:00 7,5 6,7 18 10 - - ZW 1006,2 9
12.01.2021 06:00:00 7,1 6,4 14 8 32 18 ZW 1007,1 9
12.01.2021 05:00:00 6,9 6,0 14 8 32 18 ZW 1007,7 12
12.01.2021 04:00:00 6,8 5,8 18 10 - - ZW 1008,7 10
12.01.2021 03:00:00 6,4 5,5 14 8 32 18 ZW 1009,7 8
12.01.2021 02:00:00 6,0 5,2 14 8 32 18 ZW 1010,7 7
12.01.2021 01:00:00 5,9 5,0 14 8 - - ZW 1012,0 7

tt = temperatuur
td = dauwpunt
ff = windsnelheid
fx = windstoten
dd = windrichting
ppp = luchtdruk
vv = zicht

Weerstations in de omgeving